Total_Precipitation_Accumulation
0.22 0.23 0.32 0.48 0.48 0.33 0.13 0.04 0.02 0.03 0.05 0.06 0.08 0.10 0.09 0.09 0.15 0.33 0.33 0.25 0.24 0.29 0.42 0.77 1.20 1.39 1.42 1.36 1.20 1.08 1.04 0.98 1.02 1.11 1.18 1.19 1.14 1.09 1.05 1.11 1.12 1.24 1.38 1.29 1.25 1.15 1.11 1.02 0.86
0.24 0.36 0.56 0.67 0.51 0.33 0.13 0.04 0.03 0.03 0.05 0.06 0.09 0.10 0.10 0.10 0.12 0.21 0.32 0.32 0.29 0.33 0.47 0.73 1.17 1.44 1.51 1.50 1.40 1.27 1.23 1.16 1.13 1.21 1.26 1.28 1.33 1.29 1.22 1.24 1.23 1.21 1.29 1.18 1.07 0.91 0.83 0.74 0.67
0.40 0.57 0.78 0.75 0.54 0.30 0.13 0.05 0.05 0.06 0.06 0.08 0.11 0.12 0.14 0.16 0.16 0.23 0.35 0.42 0.45 0.48 0.62 0.90 1.28 1.52 1.63 1.58 1.57 1.53 1.47 1.42 1.37 1.33 1.36 1.41 1.43 1.43 1.32 1.25 1.23 1.19 1.21 1.07 0.94 0.77 0.64 0.59 0.54
0.64 0.85 0.88 0.74 0.52 0.25 0.11 0.07 0.08 0.08 0.08 0.09 0.13 0.19 0.20 0.20 0.23 0.30 0.43 0.52 0.58 0.65 0.78 1.10 1.43 1.65 1.73 1.66 1.64 1.68 1.66 1.63 1.57 1.46 1.42 1.47 1.50 1.43 1.30 1.20 1.14 1.04 1.02 1.00 0.87 0.72 0.61 0.53 0.52
0.94 1.08 0.90 0.68 0.43 0.23 0.11 0.09 0.11 0.12 0.12 0.13 0.16 0.24 0.28 0.27 0.30 0.43 0.61 0.70 0.75 0.88 1.02 1.29 1.67 1.94 1.99 1.87 1.84 1.84 1.85 1.84 1.82 1.69 1.59 1.63 1.68 1.59 1.36 1.20 1.08 0.95 0.93 0.91 0.83 0.68 0.60 0.54 0.51
1.24 1.23 0.95 0.60 0.36 0.22 0.12 0.10 0.12 0.14 0.15 0.18 0.23 0.30 0.42 0.42 0.45 0.57 0.80 0.94 0.99 1.12 1.28 1.55 1.94 2.13 2.26 2.17 2.07 2.08 2.07 1.97 1.94 1.93 1.87 1.83 1.85 1.77 1.53 1.26 1.12 1.04 0.98 0.94 0.91 0.76 0.64 0.56 0.48
1.24 1.23 0.89 0.46 0.31 0.26 0.15 0.13 0.17 0.18 0.18 0.21 0.27 0.38 0.53 0.61 0.72 0.81 1.02 1.23 1.34 1.47 1.66 1.83 2.08 2.27 2.53 2.42 2.22 2.24 2.23 2.11 2.06 2.05 2.02 1.95 1.96 1.86 1.64 1.36 1.20 1.16 1.11 1.04 0.97 0.83 0.72 0.62 0.52
1.26 1.34 0.89 0.45 0.29 0.30 0.22 0.19 0.21 0.23 0.24 0.24 0.35 0.46 0.58 0.72 0.91 1.13 1.37 1.51 1.73 1.87 2.08 2.20 2.34 2.44 2.67 2.66 2.43 2.28 2.19 2.13 2.16 2.08 1.89 1.65 1.66 1.70 1.62 1.33 1.25 1.21 1.18 1.16 1.03 0.86 0.77 0.65 0.53
1.32 1.40 0.88 0.47 0.35 0.32 0.29 0.31 0.28 0.28 0.36 0.39 0.45 0.53 0.65 0.86 1.17 1.47 1.76 1.91 2.12 2.34 2.46 2.55 2.57 2.59 2.72 2.82 2.64 2.55 2.40 2.34 2.29 2.18 1.86 1.71 1.77 1.70 1.55 1.29 1.16 1.23 1.20 1.22 1.22 1.05 0.87 0.69 0.58
1.38 1.17 0.67 0.42 0.38 0.39 0.36 0.40 0.39 0.44 0.50 0.55 0.63 0.72 0.89 1.20 1.60 1.80 1.93 2.04 2.21 2.44 2.58 2.73 2.73 2.75 2.86 2.91 2.87 2.85 2.65 2.51 2.38 2.16 2.00 1.96 1.88 1.86 1.66 1.54 1.29 1.28 1.28 1.24 1.27 1.11 0.98 0.76 0.58
1.02 0.84 0.57 0.44 0.42 0.46 0.48 0.46 0.46 0.54 0.58 0.55 0.63 0.85 1.17 1.56 1.96 2.03 2.18 2.30 2.35 2.55 2.71 2.88 2.88 2.98 3.04 3.04 2.96 2.89 2.72 2.69 2.59 2.40 2.15 2.08 2.08 2.03 1.99 1.76 1.56 1.48 1.37 1.35 1.18 1.05 0.93 0.77 0.64
0.73 0.58 0.53 0.52 0.47 0.52 0.54 0.55 0.57 0.56 0.57 0.55 0.62 0.82 1.22 1.66 1.97 2.09 2.34 2.51 2.65 2.79 2.95 3.03 3.06 3.18 3.26 3.21 3.05 2.87 2.64 2.58 2.58 2.47 2.42 2.28 2.17 2.07 1.96 1.75 1.54 1.45 1.32 1.28 1.14 1.01 0.88 0.76 0.69
0.59 0.47 0.47 0.55 0.58 0.57 0.56 0.56 0.63 0.55 0.54 0.61 0.70 0.95 1.27 1.68 2.05 2.23 2.52 2.73 2.90 3.08 3.15 3.26 3.27 3.26 3.29 3.41 3.35 3.03 2.70 2.47 2.46 2.49 2.49 2.40 2.16 2.02 1.97 1.83 1.75 1.57 1.38 1.34 1.24 1.09 0.97 0.87 0.81
0.50 0.46 0.53 0.62 0.69 0.61 0.61 0.62 0.65 0.59 0.56 0.71 0.84 1.03 1.27 1.67 2.18 2.43 2.74 3.01 3.01 3.30 3.46 3.62 3.55 3.45 3.30 3.29 3.37 3.22 2.99 2.72 2.60 2.51 2.48 2.59 2.41 2.20 2.18 1.98 1.95 1.83 1.66 1.54 1.44 1.29 1.22 1.11 1.02
0.54 0.65 0.69 0.71 0.75 0.65 0.70 0.82 0.69 0.61 0.57 0.70 0.85 1.06 1.29 1.62 2.08 2.44 2.71 2.93 3.16 3.37 3.66 3.84 3.89 3.75 3.46 3.30 3.39 3.32 3.16 3.04 2.86 2.53 2.47 2.59 2.64 2.53 2.43 2.19 2.07 1.99 1.93 1.91 1.79 1.61 1.49 1.37 1.22
0.86 1.05 0.97 0.67 0.72 0.73 0.86 0.93 0.62 0.60 0.63 0.67 0.78 1.01 1.23 1.45 1.84 2.20 2.59 2.84 3.11 3.46 3.67 3.83 3.98 4.01 3.78 3.47 3.43 3.45 3.31 3.18 3.07 2.80 2.59 2.54 2.65 2.74 2.71 2.37 2.13 2.04 2.06 2.01 1.90 1.77 1.62 1.39 1.30
1.24 1.04 0.79 0.60 0.61 0.78 0.82 0.86 0.68 0.63 0.67 0.64 0.70 0.89 1.18 1.38 1.62 1.90 2.31 2.70 2.92 3.30 3.58 3.89 3.94 3.97 3.94 3.80 3.71 3.66 3.61 3.46 3.29 3.02 2.76 2.71 2.74 2.85 2.93 2.55 2.24 2.19 2.20 2.15 2.08 1.92 1.80 1.55 1.37
1.02 0.69 0.56 0.57 0.59 0.73 0.72 0.64 0.68 0.70 0.71 0.68 0.72 0.84 1.07 1.33 1.42 1.65 2.01 2.53 2.77 3.13 3.47 3.68 4.02 4.06 4.19 4.26 4.13 4.03 3.98 3.84 3.60 3.25 2.95 2.83 2.80 2.90 3.10 2.86 2.54 2.42 2.36 2.29 2.18 2.04 1.98 1.86 1.71
0.79 0.69 0.55 0.44 0.50 0.69 0.69 0.59 0.67 0.66 0.71 0.73 0.76 0.82 0.92 1.12 1.28 1.53 1.88 2.31 2.66 2.92 3.28 3.44 3.69 3.98 4.14 4.17 3.99 3.82 3.72 3.85 3.85 3.54 3.26 3.20 3.04 2.93 3.09 3.07 2.89 2.65 2.49 2.35 2.26 2.22 2.14 2.08 2.06
0.94 0.89 0.65 0.50 0.45 0.67 0.71 0.64 0.65 0.68 0.73 0.76 0.79 0.78 0.84 0.94 1.12 1.39 1.79 2.03 2.31 2.63 2.89 3.22 3.34 3.69 3.83 3.75 3.78 3.72 3.72 3.79 3.87 3.84 3.66 3.53 3.41 3.19 3.08 3.09 3.05 2.90 2.70 2.54 2.45 2.41 2.41 2.28 2.17
1.02 0.87 0.74 0.70 0.63 0.73 0.83 0.83 0.68 0.68 0.67 0.63 0.67 0.67 0.77 0.86 0.97 1.19 1.55 1.86 2.01 2.32 2.69 2.87 3.03 3.30 3.63 3.76 3.99 4.15 4.17 4.01 3.87 3.78 3.80 3.73 3.69 3.56 3.27 3.11 3.14 3.12 2.97 2.74 2.60 2.53 2.58 2.63 2.55
1.07 0.66 0.72 0.82 1.09 1.09 0.90 1.12 0.79 0.67 0.61 0.60 0.64 0.65 0.73 0.83 0.92 1.06 1.20 1.49 1.73 1.93 2.39 2.78 3.03 3.23 3.44 3.84 3.97 3.92 3.78 3.56 3.34 3.42 3.54 3.65 3.71 3.72 3.53 3.37 3.34 3.25 3.14 3.01 2.93 2.81 2.75 2.81 2.85
0.95 0.66 0.79 0.96 1.20 1.23 0.85 0.99 0.78 0.55 0.59 0.62 0.65 0.69 0.82 0.95 1.00 1.05 1.13 1.29 1.50 1.69 2.10 2.54 2.85 3.23 3.51 3.66 3.79 3.92 3.70 3.43 3.37 3.37 3.42 3.41 3.44 3.56 3.61 3.52 3.56 3.48 3.34 3.23 3.18 3.12 3.06 2.98 2.93
1.03 1.09 1.22 1.33 1.80 1.85 0.80 0.78 0.78 0.67 0.72 0.68 0.66 0.71 0.86 1.00 1.04 1.02 1.09 1.23 1.43 1.58 1.82 2.25 2.56 2.78 3.14 3.49 3.56 3.67 3.66 3.58 3.50 3.33 3.27 3.32 3.33 3.37 3.47 3.55 3.56 3.56 3.53 3.43 3.35 3.23 3.15 3.06 2.95
1.53 2.23 2.98 2.96 2.65 1.47 0.55 0.64 0.78 0.71 0.74 0.78 0.80 0.83 0.89 0.94 0.98 0.99 1.06 1.21 1.42 1.60 1.75 1.93 2.16 2.34 2.59 2.92 3.16 3.25 3.41 3.50 3.35 3.22 3.08 3.06 3.10 3.09 3.14 3.26 3.37 3.43 3.46 3.51 3.50 3.44 3.26 3.11 3.02
1.57 1.93 2.33 1.98 1.26 0.73 0.51 0.66 0.77 0.70 0.72 0.75 0.79 0.81 0.81 0.88 0.94 0.97 1.00 1.08 1.25 1.46 1.66 1.75 1.90 2.04 2.23 2.43 2.63 2.87 3.09 3.31 3.30 3.19 2.99 2.91 2.85 2.82 2.95 3.02 3.01 3.06 3.18 3.33 3.45 3.43 3.27 3.11 2.95
1.45 1.49 1.36 1.69 1.08 0.74 0.63 0.60 0.58 0.51 0.53 0.63 0.69 0.70 0.78 0.87 0.91 0.92 0.94 0.97 1.12 1.27 1.48 1.59 1.72 1.86 1.97 2.13 2.31 2.55 2.73 2.87 2.95 3.04 2.97 2.90 2.82 2.75 2.71 2.73 2.74 2.70 2.77 2.93 3.13 3.19 3.13 3.05 2.90
1.19 1.24 1.56 2.22 1.80 1.08 0.67 0.54 0.69 0.65 0.64 0.68 0.71 0.77 0.87 0.91 0.88 0.86 0.91 0.98 1.09 1.15 1.29 1.47 1.58 1.68 1.75 1.88 2.01 2.16 2.37 2.61 2.71 2.84 2.81 2.73 2.73 2.73 2.64 2.50 2.47 2.44 2.45 2.54 2.69 2.76 2.75 2.80 2.75
1.15 1.47 1.76 1.84 1.52 1.32 0.98 0.85 0.86 0.81 0.75 0.77 0.78 0.83 0.91 0.94 0.93 0.93 0.96 1.06 1.15 1.14 1.21 1.39 1.51 1.65 1.71 1.76 1.84 1.91 2.01 2.18 2.40 2.59 2.68 2.60 2.64 2.67 2.62 2.46 2.38 2.32 2.25 2.27 2.33 2.33 2.41 2.46 2.49
0.99 1.14 1.46 1.98 1.53 1.11 1.07 1.04 0.84 0.79 0.76 0.74 0.78 0.82 0.86 0.89 0.92 0.97 1.04 1.05 1.08 1.19 1.26 1.35 1.44 1.59 1.72 1.78 1.79 1.85 1.90 1.96 2.12 2.25 2.45 2.51 2.59 2.59 2.61 2.53 2.40 2.29 2.17 2.13 2.15 2.11 2.09 2.13 2.17